صاف ولكن ضبابي
صافي مع بعض السحب المنخفضة
غائم جزئيا
غائم جزئيا
غائم جزئيا
غائم جزئيا
غائم جزئيا
غائم جزئيا
غائم جزئيا
(°C)
17°
17°
17°
17°
17°
17°
17°
17°
17°
17°
17°
17°
17°
17°
17°
17°
17°
17°
(°C)
18°
18°
18°
18°
18°
18°
18°
18°
19°
غرب شمال غربي
غرب شمال غربي
غرب شمال غربي
غرب شمال غربي
غرب
غرب
غرب شمال غربي
شمال غربي
شمال ,شمال غربي
(km/h)
6-12
5-10
5-9
4-8
3-7
3-7
3-7
3-7
3-7
(ميليمتر)
0
0
0
0
0
0
0
0
0
(%)
0
1
1
1
1
0
0
0
0

مستوى ارتفاع الشمس

/ -18.1°
sun-icon
UV 10
05:38
19:59
القمر المحدب (93°)
13:18
01:08

متر لسان دييغو (KSAN)

الوقت الشروط درجة الحرارة/
نقطة الندى
رياح مجال رؤية حالة الطقس غيوم الضغط تغيير خام
VFR 17.2°C / 14.4°C 300º 4kt >10km - Few Clouds 1500ft 1012 - KSAN 150351Z 30004KT 10SM FEW015 17/14 A2990 RMK AO2 SLP124 T01720144 $
VFR 17.8°C / 14.4°C 300º 6kt >10km - Few Clouds 1500ft 1012 - KSAN 150251Z 30006KT 10SM FEW015 18/14 A2989 RMK AO2 SLP120 T01780144 55005 $
VFR 19.4°C / 14.4°C 310º 8kt >10km - Few Clouds 1500ft 1011 - KSAN 150151Z 31008KT 10SM FEW015 19/14 A2988 RMK AO2 SLP119 T01940144 $
VFR 20°C / 14.4°C 300º 6kt >10km - Few Clouds 1500ft 1012 - KSAN 150051Z 30006KT 10SM FEW015 20/14 A2989 RMK AO2 SLP120 T02000144 $
VFR 20.6°C / 14.4°C 300º 8kt >10km - Few Clouds 1500ft 1012 - KSAN 142351Z 30008KT 10SM FEW015 21/14 A2990 RMK AO2 SLP125 T02060144 10222 20200 58015 $
VFR 20.6°C / 13.9°C 300º 10kt >10km - Few Clouds 1500ft 1013 - KSAN 142251Z 30010KT 10SM FEW015 21/14 A2992 RMK AO2 SLP130 T02060139 $
VFR 20.6°C / 13.9°C 310º 10kt >10km - Few Clouds 1500ft 1013 - KSAN 142151Z 31010KT 10SM FEW015 21/14 A2993 RMK AO2 SLP135 T02060139 $
VFR 21.1°C / 14.4°C 310º 7kt Gust 17kt >10km - Few Clouds 1500ft 1014 - KSAN 142051Z 31007G17KT 10SM FEW015 21/14 A2995 RMK AO2 SLP140 T02110144 58005 $
VFR 21.1°C / 14.4°C 310º 9kt Gust 17kt >10km - Few Clouds 1500ft 1014 - KSAN 141951Z 31009G17KT 10SM FEW015 21/14 A2997 RMK AO2 SLP147 T02110144 $
VFR 21.1°C / 14.4°C 280º 12kt >10km - Few Clouds 1500ft 1014 - KSAN 141851Z 28012KT 10SM FEW015 21/14 A2996 RMK AO2 SLP144 T02110144 $
VFR 21.1°C / 14.4°C 290º 9kt >10km - Few Clouds 1500ft 1014 - KSAN 141751Z 29009KT 10SM FEW015 21/14 A2996 RMK AO2 SLP145 T02110144 10211 20172 58010 $
VFR 20.6°C / 14.4°C 6kt >10km - Few Clouds 1500ft 1014 - KSAN 141651Z VRB06KT 10SM FEW015 21/14 A2997 RMK AO2 SLP148 T02060144 $
VFR 20.6°C / 14.4°C 340º 3kt >10km - Few Clouds 1700ft 1015 - KSAN 141551Z 34003KT 10SM FEW017 21/14 A2998 RMK AO2 SLP152 T02060144 $
VFR 18.9°C / 13.9°C 310º 4kt >10km - Scattered Clouds 1700ft - KSAN 141514Z 31004KT 10SM SCT017 19/14 A2998 RMK AO2 SCT V BKN T01890139 $
MVFR 19.4°C / 13.9°C 4kt >10km - Broken Clouds 1700ft 1015 - KSAN 141451Z VRB04KT 10SM BKN017 19/14 A2999 RMK AO2 SLP155 T01940139 51005 $
MVFR 17.8°C / 13.3°C 340º 5kt >10km - Broken Clouds 1700ft 1015 - KSAN 141351Z 34005KT 10SM BKN017 18/13 A2999 RMK AO2 SLP154 T01780133 $
MVFR 17.8°C / 13.3°C variable 0kt >10km - Overcast 1700ft 1015 - KSAN 141251Z 00000KT 10SM OVC017 18/13 A2998 RMK AO2 SLP152 T01780133 $
MVFR 17.8°C / 13.3°C variable 0kt >10km - Overcast 1700ft 1015 - KSAN 141151Z 00000KT 10SM OVC017 18/13 A2998 RMK AO2 SLP150 T01780133 10178 20172 55006 $
MVFR 17.8°C / 13.9°C variable 0kt >10km - Overcast 1600ft 1014 - KSAN 141051Z 00000KT 10SM OVC016 18/14 A2996 RMK AO2 SLP146 T01780139 $
MVFR 17.8°C / 13.3°C 330º 3kt >10km - Overcast 1500ft 1015 - KSAN 140951Z 33003KT 10SM OVC015 18/13 A2998 RMK AO2 SLP150 T01780133 $
MVFR 17.8°C / 13.9°C 290º 6kt >10km - Overcast 1500ft 1015 - KSAN 140851Z 29006KT 10SM OVC015 18/14 A2999 RMK AO2 SLP156 T01780139 58006 $
MVFR 17.8°C / 13.9°C 300º 5kt >10km - Overcast 1500ft - KSAN 140815Z 30005KT 10SM OVC015 18/14 A3000 RMK AO2 T01780139 $
MVFR 17.8°C / 13.9°C 290º 6kt >10km - Overcast 1400ft 1015 - KSAN 140751Z 29006KT 10SM OVC014 18/14 A3000 RMK AO2 SLP159 T01780139 402170167 $
MVFR 17.8°C / 14.4°C 290º 6kt >10km - Overcast 1400ft - KSAN 140725Z 29006KT 10SM OVC014 18/14 A3000 RMK AO2 T01780144 $

VFR

17.2°C / 14.4°C

[أكثر]
رياح 300º 4kt
مجال رؤية >10km
حالة الطقس -
غيوم Few Clouds 1500ft
الضغط 1012
تغيير -
خام KSAN 150351Z 30004KT 10SM FEW015 17/14 A2990 RMK AO2 SLP124 T01720144 $

VFR

17.8°C / 14.4°C

[أكثر]
رياح 300º 6kt
مجال رؤية >10km
حالة الطقس -
غيوم Few Clouds 1500ft
الضغط 1012
تغيير -
خام KSAN 150251Z 30006KT 10SM FEW015 18/14 A2989 RMK AO2 SLP120 T01780144 55005 $

VFR

19.4°C / 14.4°C

[أكثر]
رياح 310º 8kt
مجال رؤية >10km
حالة الطقس -
غيوم Few Clouds 1500ft
الضغط 1011
تغيير -
خام KSAN 150151Z 31008KT 10SM FEW015 19/14 A2988 RMK AO2 SLP119 T01940144 $

VFR

20°C / 14.4°C

[أكثر]
رياح 300º 6kt
مجال رؤية >10km
حالة الطقس -
غيوم Few Clouds 1500ft
الضغط 1012
تغيير -
خام KSAN 150051Z 30006KT 10SM FEW015 20/14 A2989 RMK AO2 SLP120 T02000144 $

VFR

20.6°C / 14.4°C

[أكثر]
رياح 300º 8kt
مجال رؤية >10km
حالة الطقس -
غيوم Few Clouds 1500ft
الضغط 1012
تغيير -
خام KSAN 142351Z 30008KT 10SM FEW015 21/14 A2990 RMK AO2 SLP125 T02060144 10222 20200 58015 $

VFR

20.6°C / 13.9°C

[أكثر]
رياح 300º 10kt
مجال رؤية >10km
حالة الطقس -
غيوم Few Clouds 1500ft
الضغط 1013
تغيير -
خام KSAN 142251Z 30010KT 10SM FEW015 21/14 A2992 RMK AO2 SLP130 T02060139 $

VFR

20.6°C / 13.9°C

[أكثر]
رياح 310º 10kt
مجال رؤية >10km
حالة الطقس -
غيوم Few Clouds 1500ft
الضغط 1013
تغيير -
خام KSAN 142151Z 31010KT 10SM FEW015 21/14 A2993 RMK AO2 SLP135 T02060139 $

VFR

21.1°C / 14.4°C

[أكثر]
رياح 310º 7kt Gust 17kt
مجال رؤية >10km
حالة الطقس -
غيوم Few Clouds 1500ft
الضغط 1014
تغيير -
خام KSAN 142051Z 31007G17KT 10SM FEW015 21/14 A2995 RMK AO2 SLP140 T02110144 58005 $

VFR

21.1°C / 14.4°C

[أكثر]
رياح 310º 9kt Gust 17kt
مجال رؤية >10km
حالة الطقس -
غيوم Few Clouds 1500ft
الضغط 1014
تغيير -
خام KSAN 141951Z 31009G17KT 10SM FEW015 21/14 A2997 RMK AO2 SLP147 T02110144 $

VFR

21.1°C / 14.4°C

[أكثر]
رياح 280º 12kt
مجال رؤية >10km
حالة الطقس -
غيوم Few Clouds 1500ft
الضغط 1014
تغيير -
خام KSAN 141851Z 28012KT 10SM FEW015 21/14 A2996 RMK AO2 SLP144 T02110144 $

VFR

21.1°C / 14.4°C

[أكثر]
رياح 290º 9kt
مجال رؤية >10km
حالة الطقس -
غيوم Few Clouds 1500ft
الضغط 1014
تغيير -
خام KSAN 141751Z 29009KT 10SM FEW015 21/14 A2996 RMK AO2 SLP145 T02110144 10211 20172 58010 $

VFR

20.6°C / 14.4°C

[أكثر]
رياح 6kt
مجال رؤية >10km
حالة الطقس -
غيوم Few Clouds 1500ft
الضغط 1014
تغيير -
خام KSAN 141651Z VRB06KT 10SM FEW015 21/14 A2997 RMK AO2 SLP148 T02060144 $

VFR

20.6°C / 14.4°C

[أكثر]
رياح 340º 3kt
مجال رؤية >10km
حالة الطقس -
غيوم Few Clouds 1700ft
الضغط 1015
تغيير -
خام KSAN 141551Z 34003KT 10SM FEW017 21/14 A2998 RMK AO2 SLP152 T02060144 $

VFR

18.9°C / 13.9°C

[أكثر]
رياح 310º 4kt
مجال رؤية >10km
حالة الطقس -
غيوم Scattered Clouds 1700ft
الضغط
تغيير -
خام KSAN 141514Z 31004KT 10SM SCT017 19/14 A2998 RMK AO2 SCT V BKN T01890139 $

MVFR

19.4°C / 13.9°C

[أكثر]
رياح 4kt
مجال رؤية >10km
حالة الطقس -
غيوم Broken Clouds 1700ft
الضغط 1015
تغيير -
خام KSAN 141451Z VRB04KT 10SM BKN017 19/14 A2999 RMK AO2 SLP155 T01940139 51005 $

MVFR

17.8°C / 13.3°C

[أكثر]
رياح 340º 5kt
مجال رؤية >10km
حالة الطقس -
غيوم Broken Clouds 1700ft
الضغط 1015
تغيير -
خام KSAN 141351Z 34005KT 10SM BKN017 18/13 A2999 RMK AO2 SLP154 T01780133 $

MVFR

17.8°C / 13.3°C

[أكثر]
رياح variable 0kt
مجال رؤية >10km
حالة الطقس -
غيوم Overcast 1700ft
الضغط 1015
تغيير -
خام KSAN 141251Z 00000KT 10SM OVC017 18/13 A2998 RMK AO2 SLP152 T01780133 $

MVFR

17.8°C / 13.3°C

[أكثر]
رياح variable 0kt
مجال رؤية >10km
حالة الطقس -
غيوم Overcast 1700ft
الضغط 1015
تغيير -
خام KSAN 141151Z 00000KT 10SM OVC017 18/13 A2998 RMK AO2 SLP150 T01780133 10178 20172 55006 $

MVFR

17.8°C / 13.9°C

[أكثر]
رياح variable 0kt
مجال رؤية >10km
حالة الطقس -
غيوم Overcast 1600ft
الضغط 1014
تغيير -
خام KSAN 141051Z 00000KT 10SM OVC016 18/14 A2996 RMK AO2 SLP146 T01780139 $

MVFR

17.8°C / 13.3°C

[أكثر]
رياح 330º 3kt
مجال رؤية >10km
حالة الطقس -
غيوم Overcast 1500ft
الضغط 1015
تغيير -
خام KSAN 140951Z 33003KT 10SM OVC015 18/13 A2998 RMK AO2 SLP150 T01780133 $

MVFR

17.8°C / 13.9°C

[أكثر]
رياح 290º 6kt
مجال رؤية >10km
حالة الطقس -
غيوم Overcast 1500ft
الضغط 1015
تغيير -
خام KSAN 140851Z 29006KT 10SM OVC015 18/14 A2999 RMK AO2 SLP156 T01780139 58006 $

MVFR

17.8°C / 13.9°C

[أكثر]
رياح 300º 5kt
مجال رؤية >10km
حالة الطقس -
غيوم Overcast 1500ft
الضغط
تغيير -
خام KSAN 140815Z 30005KT 10SM OVC015 18/14 A3000 RMK AO2 T01780139 $

MVFR

17.8°C / 13.9°C

[أكثر]
رياح 290º 6kt
مجال رؤية >10km
حالة الطقس -
غيوم Overcast 1400ft
الضغط 1015
تغيير -
خام KSAN 140751Z 29006KT 10SM OVC014 18/14 A3000 RMK AO2 SLP159 T01780139 402170167 $

MVFR

17.8°C / 14.4°C

[أكثر]
رياح 290º 6kt
مجال رؤية >10km
حالة الطقس -
غيوم Overcast 1400ft
الضغط
تغيير -
خام KSAN 140725Z 29006KT 10SM OVC014 18/14 A3000 RMK AO2 T01780144 $

انقر لسان دييغو (KSAN)

From till


From till Wind 300º 6kt. Visibility 9700m. Few Clouds 1000ft.
From till Wind 4kt. Visibility 8000m. Mist . Broken Clouds 800ft.
Temporarly from till Visibility 1600m. Mist . Overcast 400ft.
From till Wind 4kt. Visibility 9700m. Scattered Clouds 1000ft.
From till Wind 260º 9kt. Visibility 9700m. Few Clouds 1000ft.
From till Wind 4kt. Visibility 9700m. Few Clouds 1000ft.

خام: KSAN 150254Z 1503/1606 30006KT P6SM FEW010 FM150800 VRB04KT 5SM BR BKN008 TEMPO 1512/1515 1SM BR OVC004 FM151600 VRB04KT P6SM SCT010 FM152000 26009KT P6SM FEW010 FM160230 VRB04KT P6SM FEW010

rainNOW: هطول أمطار الآن فيسان دييغو والمناطق المحيطة (نصف قطر 25 كم)

0.0 ميليمتر
0.0 ميليمتر
0.0 ميليمتر
0.0 ميليمتر
0.0 ميليمتر
0.0 ميليمتر
0.0 ميليمتر
0.0 ميليمتر
0.0 ميليمتر
0.0 ميليمتر
0.0 ميليمتر
0.0 ميليمتر

رادار وهطول الأمطار التنبؤ الآني لسان دييغو

رذاذ
ضوء
معتدل
ثقيل
ثقيل جدا
وابل

مؤشر المكان يشير الى سان دييغو. تُظهر هذه الرسوم المتحركة رادار هطول الأمطار للنطاق الزمني المحدد ، بالإضافة إلى توقعات ٪ 1 $ dh . تشير الصلبان البرتقالية إلى البرق. البيانات مقدمة من nowcast.de (متوفرة في الولايات المتحدة الأمريكية وأوروبا وأستراليا). رذاذ أو تساقط ثلوج خفيف قد يكون غير مرئي للرادار. كثافة هطول الأمطار لها رموز لونية تتراوح من الفيروز إلى الأحمر.

صور الأقمار الصناعية الملتقطة حالياً لسان دييغو, الولايات المتحدة الأمريكية

المؤشر يدل على موقع سان دييغو. [أكثر]

تجمع صورة الأقمار الصناعية في الوقت الفعلي بين الضوء المرئي أثناء النهار والأشعة تحت الحمراء أثناء الليل. لا تبدو الصورة مظلمة ليلاً، لأن الأشعة تحت الحمراء يمكنها الكشف عن الاختلافات في درجة الحرارة. لسوء الحظ ، يصعب التمييز بين السحب المنخفضة والضباب ودرجات حرارة الأرض ، وبالتالي يمكن أن تكون الصور غير مرئية تقريبًا أثناء الليل. يتم تحديث صور الأقمار الصناعية Meteosat الخاصة بأوروبا في الوقت الفعلي كل 5 دقائق، بينما يتم تحديث صور GOES-16 / GOES-17 (أمريكا الشمالية والجنوبية) و هيماواري (آسيا) كل 10 دقائق.

يقدر هطول الأمطار من الرادار والأقمار الصناعية. تقديرات هطول الأمطار من الأقمار الصناعية أقل دقة في الليل منها أثناء النهار.

© 2024 meteoblue, NOAA Satellites GOES-16 and EUMETSAT. بيانات البرق مقدمة من nowcast.

العودة الى الأعلى
×
مرحبًا ،
يبدو أنك تستخدم مانع الإعلانات.

يُعد الإعلان أمرًا ضروريًا للحفاظ على موقعنا المجاني بتفاصيل ودقة فريدة.

يُرجى إضافة www.meteoblue.com إلى القائمة البيضاء في أداة منع الإعلانات أو التفكير في شراء أحد منتجاتنا:

لديك اشتراك بالفعل؟
ثم يرجى تسجيل الدخول .